Saipan, MP

12:59 PM ChST on April 20, 2018 (GMT +1000)
Saipan International

Weather History for PGSN - March, 2013

Change the Weather History Date:

Saturday, March 2, 2013

  Actual Average Record
Temperature  
Mean Temperature 78 °F -  
Max Temperature 82 °F 82 °F 87 °F (1999)
Min Temperature 73 °F 73 °F 71 °F (1998)
Cooling Degree Days 12    
Growing Degree Days 28 (Base 50)    
Moisture  
Dew Point 73 °F    
Average Humidity 84    
Maximum Humidity 97    
Minimum Humidity 69    
Precipitation  
Precipitation 0.01 in - - ()
Sea Level Pressure  
Sea Level Pressure 29.95 in    
Wind  
Wind Speed 11 mph (East)    
Max Wind Speed 17 mph    
Max Gust Speed -    
Visibility 10 miles    
Events Rain    
Averages and records for this station are not official NWS values.
T = Trace of Precipitation, MM = Missing Value Source: NWS Daily Summary

Daily Weather History Graph

Daily Weather History Graph

Search for Another Location

Airport or City:

Astronomy

Mar. 02, 2013 Rise Set
Actual Time 6:33 AM ChST 6:24 PM ChST
Civil Twilight 6:12 AM ChST 6:46 PM ChST
Nautical Twilight 5:47 AM ChST 7:11 PM ChST
Astronomical Twilight 5:22 AM ChST 7:36 PM ChST
Moon 10:26 PM ChST (3/2) 9:24 AM ChST (3/2)
Length of Visible Light 12h 34m
Length of Day
11h 51m
Waning Gibbous, 80% of the Moon is Illuminated
Mar 2
Waning Gibbous
Mar 5
Last Quarter
Mar 12
New
Mar 20
First Quarter
Mar 27
Full

Hourly Weather History & Observations

Time (ChST) Temp. Heat Index Dew Point Humidity Pressure Visibility Wind Dir Wind Speed Gust Speed Precip Events Conditions
12:54 AM 75.9 °F - 72.0 °F 87% 29.97 in 10.0 mi ENE 12.7 mph - N/A   Scattered Clouds
1:54 AM 75.9 °F - 72.0 °F 87% 29.96 in 10.0 mi ENE 11.5 mph - N/A   Scattered Clouds
2:54 AM 75.9 °F - 72.0 °F 87% 29.95 in 10.0 mi ENE 10.4 mph - N/A   Scattered Clouds
3:54 AM 75.0 °F - 73.0 °F 94% 29.94 in 10.0 mi NE 9.2 mph - N/A   Mostly Cloudy
4:54 AM 73.9 °F - 73.0 °F 97% 29.93 in 10.0 mi East 12.7 mph - N/A   Overcast
5:54 AM 77.0 °F - 72.0 °F 84% 29.94 in 10.0 mi ENE 10.4 mph - N/A   Clear
6:54 AM 78.1 °F - 73.0 °F 84% 29.96 in 10.0 mi ENE 10.4 mph - N/A   Mostly Cloudy
7:54 AM 78.1 °F - 73.0 °F 84% 29.98 in 10.0 mi ENE 9.2 mph - N/A   Overcast
8:54 AM 78.1 °F - 73.0 °F 84% 29.99 in 9.0 mi East 11.5 mph - 0.00 in Rain Light Rain
9:54 AM 80.1 °F 84.2 °F 73.0 °F 79% 30.01 in 9.0 mi East 13.8 mph - 0.01 in   Overcast
10:54 AM 79.0 °F - 73.9 °F 84% 29.99 in 10.0 mi SE 6.9 mph - N/A   Mostly Cloudy
11:54 AM 75.0 °F - 73.0 °F 94% 29.98 in 5.0 mi ESE 12.7 mph - 0.00 in Rain Light Rain
12:54 PM 80.1 °F 85.1 °F 75.0 °F 85% 29.96 in 10.0 mi ENE 12.7 mph - 0.00 in   Mostly Cloudy
1:54 PM 82.0 °F 87.4 °F 73.0 °F 74% 29.93 in 10.0 mi East 17.3 mph - N/A   Scattered Clouds
2:54 PM 80.1 °F 84.2 °F 73.0 °F 79% 29.91 in 10.0 mi East 13.8 mph - N/A   Partly Cloudy
3:54 PM 82.0 °F 86.3 °F 71.1 °F 69% 29.89 in 10.0 mi East 12.7 mph - N/A   Partly Cloudy
4:54 PM 81.0 °F 85.8 °F 73.0 °F 77% 29.90 in 10.0 mi ESE 12.7 mph - N/A   Clear
5:54 PM 78.1 °F - 73.0 °F 84% 29.91 in 10.0 mi East 10.4 mph - N/A   Partly Cloudy
6:54 PM 80.1 °F 84.2 °F 73.0 °F 79% 29.92 in 10.0 mi East 8.1 mph - N/A   Partly Cloudy
7:54 PM 78.1 °F - 73.9 °F 87% 29.94 in 10.0 mi East 6.9 mph - N/A   Partly Cloudy
8:54 PM 78.1 °F - 73.9 °F 87% 29.96 in 10.0 mi East 8.1 mph - N/A   Scattered Clouds
9:54 PM 78.1 °F - 73.9 °F 87% 29.96 in 10.0 mi East 6.9 mph - N/A   Scattered Clouds
10:54 PM 78.1 °F - 73.9 °F 87% 29.96 in 10.0 mi East 10.4 mph - N/A   Scattered Clouds
11:54 PM 78.1 °F - 73.9 °F 87% 29.95 in 10.0 mi East 10.4 mph - 0.00 in   Mostly Cloudy